EA1IDU Weather Reports


time (UTC)temp
C
wind
direction
speed
KPH
gust
KPH
rain 1hr
cm
rain 24hr
cm
rain mn
cm
humidity
%
barometer
mb
20260508145043 13 181 12.9 17.7 0.00 0.30 0.18 66 1011.1
20260508144038 13 174 12.9 24.1 0.00 0.51 0.18 69 1011.2
20260508143033 12 170 9.7 20.9 0.00 0.56 0.18 73 1011.6
20260508142029 12 141 9.7 20.9 0.00 0.56 0.18 74 1011.7
20260508141044 11 141 11.3 20.9 0.05 0.56 0.18 75 1011.8
20260508140020 10 114 4.8 17.7 0.13 0.56 0.18 84 1012.0
20260508135114 9 214 1.6 6.4 0.15 0.56 0.18 88 1012.2
20260508134108 8 173 4.8 6.4 0.15 0.56 0.18 89 1012.4
20260508133103 8 56 3.2 6.4 0.15 0.56 0.18 91 1012.3
20260508132058 8 211 3.2 6.4 0.18 0.56 0.18 90 1012.8
20260508131054 8 228 12.9 17.7 0.13 0.51 0.13 89 1013.0
20260508130049 8 209 14.5 22.5 0.05 0.46 0.05 86 1013.0
20260508125104 10 215 17.7 32.2 0.03 0.43 0.03 84 1013.0
20260508124038 10 217 17.7 29.0 0.03 0.43 0.03 81 1012.6
20260508123033 10 195 17.7 27.4 0.03 0.43 0.03 84 1012.3
20260508122028 11 203 14.5 20.9 0.00 0.38 0.00 79 1012.3
20260508121023 12 204 12.9 22.5 0.00 0.38 0.00 74 1012.3
20260508120018 12 225 12.9 17.7 0.00 0.38 0.00 73 1012.3
20260508115133 12 191 16.1 22.5 0.00 0.38 0.00 72 1012.4
20260508114108 12 215 14.5 22.5 0.00 0.38 0.00 70 1012.4
20260508113104 12 165 12.9 17.7 0.00 0.38 0.00 70 1012.6
20260508112058 12 164 12.9 17.7 0.00 0.38 0.00 70 1012.5
20260508111053 12 195 16.1 24.1 0.00 0.38 0.00 69 1012.5
20260508110048 12 209 11.3 20.9 0.00 0.38 0.00 68 1012.4
20260508105103 12 148 6.4 12.9 0.00 0.38 0.00 69 1012.2
20260508104037 12 145 6.4 11.3 0.00 0.38 0.00 68 1012.0
20260508103052 12 102 6.4 12.9 0.00 0.38 0.00 69 1011.9
20260508102027 12 171 3.2 11.3 0.00 0.38 0.00 70 1012.2
20260508101023 12 160 8.0 17.7 0.00 0.38 0.00 70 1012.4
20260508100017 12 178 8.0 17.7 0.00 0.38 0.00 70 1012.4
20260508095112 11 182 11.3 22.5 0.00 0.38 0.00 72 1012.2
20260508094109 11 304 0.0 3.2 0.00 0.38 0.00 80 1012.2
20260508093103 11 0.0 3.2 0.00 0.38 0.00 80 1012.3
20260508092059 10 0.0 0.0 0.00 0.38 0.00 82 1012.0
20260508091053 10 338 0.0 3.2 0.00 0.38 0.00 82 1012.1
20260508090049 10 9 1.6 3.2 0.00 0.38 0.00 82 1012.0
20260508085043 9 21 3.2 6.4 0.00 0.38 0.00 83 1011.9
20260508084039 9 37 3.2 6.4 0.00 0.38 0.00 82 1012.0
20260508083033 9 19 3.2 6.4 0.00 0.38 0.00 82 1012.0
20260508082028 9 26 3.2 6.4 0.00 0.38 0.00 82 1012.1
20260508081023 9 27 3.2 6.4 0.00 0.38 0.00 82 1011.9
20260508080018 9 35 3.2 6.4 0.00 0.38 0.00 82 1012.1
20260508075114 8 17 1.6 6.4 0.00 0.38 0.00 84 1012.0
20260508074109 8 13 3.2 11.3 0.00 0.38 0.00 85 1011.9
20260508073103 8 34 4.8 9.7 0.00 0.38 0.00 86 1012.0
20260508072058 8 15 3.2 6.4 0.00 0.38 0.00 86 1012.1
20260508071114 7 9 6.4 14.5 0.00 0.38 0.00 86 1012.0
20260508070049 7 10 4.8 9.7 0.00 0.38 0.00 86 1012.2
20260508065044 7 15 3.2 9.7 0.00 0.38 0.00 87 1012.0
20260508064040 7 9 0.0 6.4 0.00 0.38 0.00 87 1012.1
20260508063055 6 0 1.6 6.4 0.00 0.38 0.00 87 1012.1
20260508062049 6 17 1.6 6.4 0.00 0.38 0.00 88 1012.0
20260508061024 6 24 3.2 9.7 0.00 0.38 0.00 88 1011.9
20260508060018 6 27 4.8 6.4 0.00 0.38 0.00 88 1011.9
20260508055115 6 45 4.8 9.7 0.00 0.38 0.00 88 1011.8
20260508054109 6 343 0.0 3.2 0.00 0.38 0.00 88 1011.8
20260508053104 6 30 1.6 6.4 0.00 0.38 0.00 88 1011.6
20260508052059 6 20 4.8 6.4 0.00 0.38 0.00 87 1011.5
20260508051054 7 6 3.2 9.7 0.00 0.38 0.00 86 1011.4
20260508050049 7 39 6.4 12.9 0.00 0.38 0.00 85 1011.1
20260508045104 7 51 8.0 12.9 0.00 0.38 0.00 84 1011.1
20260508044100 7 41 6.4 11.3 0.00 0.38 0.00 83 1011.1
20260508043114 7 40 6.4 11.3 0.00 0.38 0.00 83 1011.0
20260508042029 7 41 4.8 6.4 0.00 0.38 0.00 82 1011.1
20260508041025 8 19 3.2 9.7 0.00 0.38 0.00 79 1011.0
20260508040020 8 39 6.4 11.3 0.00 0.38 0.00 77 1010.9
20260508035114 10 55 9.7 17.7 0.00 0.38 0.00 74 1011.0
20260508034109 9 56 6.4 17.7 0.00 0.38 0.00 77 1011.1
20260508033145 9 47 4.8 6.4 0.00 0.38 0.00 76 1011.2
20260508032059 9 62 9.7 12.9 0.00 0.38 0.00 76 1011.1
20260508031055 9 104 8.0 12.9 0.00 0.38 0.00 76 1011.2
20260508030050 9 72 6.4 12.9 0.00 0.38 0.00 76 1011.3
20260508025045 9 89 6.4 14.5 0.00 0.38 0.00 76 1011.4
20260508024101 9 196 4.8 14.5 0.00 0.38 0.00 76 1011.5
20260508023035 9 139 9.7 20.9 0.00 0.38 0.00 75 1011.6
20260508022030 9 106 9.7 17.7 0.00 0.38 0.00 76 1011.5
20260508021025 9 127 4.8 14.5 0.00 0.38 0.00 76 1011.7
20260508020021 9 111 4.8 12.9 0.00 0.38 0.00 76 1011.8
20260508015135 9 120 8.0 14.5 0.00 0.38 0.00 75 1011.7
20260508014111 9 127 9.7 17.7 0.00 0.38 0.00 75 1011.8
20260508013105 9 99 11.3 17.7 0.00 0.38 0.00 75 1011.9
20260508012101 10 132 12.9 20.9 0.00 0.38 0.00 75 1011.9
20260508011055 10 145 12.9 27.4 0.00 0.38 0.00 76 1012.2
20260508010051 10 123 11.3 20.9 0.00 0.38 0.00 76 1012.4
20260508005045 10 151 14.5 27.4 0.00 0.38 0.00 76 1012.5
20260508004040 10 113 11.3 22.5 0.00 0.38 0.00 77 1012.4
20260508003056 10 132 11.3 24.1 0.00 0.38 0.00 77 1012.5
20260508002030 10 138 12.9 24.1 0.00 0.38 0.00 77 1012.5
20260508001026 10 121 8.0 17.7 0.00 0.38 0.00 77 1012.7
20260508000021 10 100 8.0 14.5 0.00 0.38 0.00 77 1012.7
20260507235036 10 133 12.9 25.7 0.00 0.38 0.00 77 1012.7
20260507234111 10 117 11.3 22.5 0.00 0.38 0.00 77 1012.6
20260507233106 10 136 6.4 17.7 0.00 0.38 0.00 78 1012.7
20260507232141 10 144 6.4 14.5 0.00 0.38 0.00 78 1012.6
20260507231056 10 172 6.4 12.9 0.00 0.38 0.00 78 1012.8
20260507230051 10 188 1.6 6.4 0.00 0.38 0.00 78 1012.9
20260507225046 10 164 3.2 9.7 0.00 0.38 0.00 79 1013.0
20260507224042 9 180 0.0 6.4 0.00 0.38 0.00 80 1013.1
20260507223037 9 203 0.0 3.2 0.00 0.38 0.00 80 1013.1
20260507222032 10 138 1.6 3.2 0.00 0.38 0.00 79 1013.1
20260507221027 10 74 3.2 9.7 0.00 0.38 0.00 79 1013.0
20260507220022 10 52 3.2 6.4 0.00 0.38 0.00 79 1013.1
20260507215016 9 45 4.8 11.3 0.00 0.38 0.38 81 1013.1
20260507214112 9 315 0.0 3.2 0.00 0.38 0.38 81 1013.1
20260507213107 9 248 0.0 3.2 0.00 0.38 0.38 81 1013.1
20260507212102 9 0.0 3.2 0.00 0.38 0.38 80 1013.2
20260507211117 9 0.0 0.0 0.00 0.38 0.38 79 1013.2
20260507210052 9 64 1.6 3.2 0.00 0.38 0.38 80 1013.0
20260507205047 9 113 0.0 3.2 0.00 0.38 0.38 81 1013.0
20260507204042 10 135 0.0 3.2 0.00 0.38 0.38 81 1012.8
20260507203057 10 106 1.6 6.4 0.00 0.38 0.38 82 1012.6
20260507202032 10 75 4.8 6.4 0.00 0.38 0.38 82 1012.4
20260507201047 10 68 6.4 12.9 0.00 0.38 0.38 81 1012.2
20260507200022 10 45 4.8 9.7 0.00 0.38 0.38 81 1012.2
20260507195017 10 43 4.8 6.4 0.00 0.38 0.38 80 1012.0
20260507194113 10 45 8.0 12.9 0.00 0.38 0.38 79 1011.8
20260507193107 10 45 8.0 12.9 0.00 0.38 0.38 79 1011.7
20260507192102 10 36 4.8 11.3 0.00 0.38 0.38 79 1011.8
20260507191057 10 42 4.8 12.9 0.00 0.38 0.38 78 1011.8
20260507190053 11 45 9.7 12.9 0.00 0.38 0.38 77 1011.6
20260507185049 11 41 9.7 14.5 0.00 0.38 0.38 78 1011.7
20260507184104 11 45 11.3 17.7 0.00 0.38 0.38 75 1011.6
20260507183058 11 45 12.9 17.7 0.00 0.38 0.38 74 1011.6
20260507182033 11 11 9.7 14.5 0.00 0.38 0.38 75 1011.4
20260507181028 12 45 9.7 17.7 0.00 0.38 0.38 73 1011.4
20260507180023 12 38 6.4 9.7 0.00 0.38 0.38 72 1011.3
20260507175038 12 36 6.4 12.9 0.00 0.38 0.38 72 1011.4
20260507174113 12 45 8.0 14.5 0.00 0.38 0.38 74 1011.5
20260507173129 11 42 12.9 17.7 0.00 0.38 0.38 73 1011.6
20260507172103 11 38 11.3 17.7 0.00 0.38 0.38 75 1011.8
20260507171058 11 55 12.9 24.1 0.00 0.38 0.38 78 1011.7
20260507170053 10 50 12.9 22.5 0.00 0.38 0.38 79 1011.9
20260507165049 10 42 16.1 22.5 0.00 0.38 0.38 78 1011.8
20260507164043 10 45 16.1 20.9 0.00 0.38 0.38 78 1012.0
20260507163038 10 45 16.1 20.9 0.00 0.38 0.38 80 1012.0
20260507162033 10 49 11.3 17.7 0.00 0.38 0.38 84 1012.1
20260507161029 10 45 9.7 12.9 0.00 0.38 0.38 84 1012.4
20260507160023 10 4 6.4 12.9 0.05 0.38 0.38 86 1012.5
20260507155040 9 38 3.2 9.7 0.13 0.38 0.38 88 1012.5
20260507154114 8 8 4.8 12.9 0.33 0.38 0.38 88 1012.5
20260507153109 8 357 8.0 14.5 0.38 0.38 0.38 88 1012.4
20260507152104 8 41 4.8 9.7 0.38 0.38 0.38 88 1012.6
20260507151059 9 32 8.0 14.5 0.38 0.38 0.38 83 1012.3
20260507150054 10 329 6.4 11.3 0.33 0.33 0.33 79 1012.7